This is the latest recevied weather packets stored in our database for station/object WP3OF. If no packets are shown the sender has not sent any weather packets the latest 1 day(s).
| Time | Temp. | Humidity | Pressure | Rain* | Wind** | Luminosity | Snow |
|---|---|---|---|---|---|---|---|
| 1777974952 | - | - | - | 0 mm | 1.79 m/s, 190° | - | - |
| 1777974649 | - | - | - | 0 mm | 1.79 m/s, 184° | - | - |
| 1777974345 | - | - | - | 0 mm | 1.79 m/s, 178° | - | - |
| 1777974042 | - | - | - | 0 mm | 1.34 m/s, 178° | - | - |
| 1777973738 | - | - | - | 0 mm | 0.89 m/s, 189° | - | - |
| 1777973436 | - | - | - | 0 mm | 0.45 m/s, 183° | - | - |
| 1777973133 | - | - | - | 0 mm | 0 m/s | - | - |
| 1777972831 | - | - | - | 0 mm | 0.89 m/s, 207° | - | - |
| 1777972528 | - | - | - | 0 mm | 0.89 m/s, 187° | - | - |
| 1777972226 | - | - | - | 0 mm | 0.89 m/s, 187° | - | - |
| 1777971924 | - | - | - | 0 mm | 0.89 m/s, 182° | - | - |
| 1777971621 | - | - | - | 0 mm | 1.79 m/s, 176° | - | - |
| 1777971319 | - | - | - | 0 mm | 0.45 m/s, 167° | - | - |
| 1777971017 | - | - | - | 0 mm | 0.45 m/s, 162° | - | - |
| 1777970715 | - | - | - | 0 mm | 0.45 m/s, 165° | - | - |
| 1777970413 | - | - | - | 0 mm | 0.89 m/s, 148° | - | - |
| 1777970110 | - | - | - | 0 mm | 2.24 m/s, 143° | - | - |
| 1777969806 | - | - | - | 0 mm | 1.79 m/s, 137° | - | - |
| 1777969501 | - | - | - | 0 mm | 1.79 m/s, 139° | - | - |
| 1777969199 | - | - | - | 0 mm | 1.34 m/s, 150° | - | - |
| 1777968895 | - | - | - | 0 mm | 0.89 m/s, 180° | - | - |
| 1777968592 | - | - | - | 0 mm | 0.45 m/s, 172° | - | - |
| 1777968288 | - | - | - | 0 mm | 0.89 m/s, 105° | - | - |
| 1777967984 | - | - | - | 0 mm | 0.89 m/s, 96° | - | - |
| 1777967681 | - | - | - | 0 mm | 0.45 m/s, 108° | - | - |
* Rain latest hour (hover to see other rain measurements)
** Current wind speed in m/s (hover to see current wind gust speed)